Location: Le Gr�zie
(43.6000°N, 13.5000°E)
Time: 02:17:22
(UTC+00:00)

COSMOS 2455 - Pass Details

Date: 09 April 2020
Orbit: 899 x 910 km, 67.1° (Epoch: 02 June)

Event Time Altitude Azimuth Distance (km) Brightness Sun altitude
Rises 20:03:06 0° 323° (NW) 3,545 7.2 -23.7°
Reaches altitude 10° 20:05:45 10° 316° (NW) 2,600 6.3 -24.1°
Maximum altitude 20:11:18 40° 249° (WSW) 1,320 3.8 -24.8°
Enters shadow 20:13:55 27° 201° (SSW) 1,689 4.0 -25.2°
